Preview of NWS' New Version of Forecast
This preview is not operational and should not be used for support decisions.

Regional Weather Roundup (RWR)

Issued by National Weather Service (NWS)

                            
000
ASUS43 KFSD 171910
RWRSD 

WEATHER ROUNDUP FOR SOUTH DAKOTA
NATIONAL WEATHER SERVICE SIOUX FALLS SD
100 PM CST MON DEC 17 2018

NOTE: "FAIR" INDICATES FEW OR NO CLOUDS BELOW 12,000 FEET WITH NO
SIGNIFICANT WEATHER AND/OR OBSTRUCTIONS TO VISIBILITY.


SDZ001>005-009-010-012>017-172000-
NORTHWEST AND NORTH CENTRAL SOUTH DAKOTA
  
CITY           SKY/WX    TMP DP  RH WIND       PRES   REMARKS
BUFFALO          N/A     40  27  59 S6        29.88                   
FAITH            N/A     40  28  62 CALM      29.91F                  
MOBRIDGE       SUNNY     41  26  55 SE8       29.94F                  
$$
 
SDZ012>016-024>037-041>051-057-063-072>074-172000-
SOUTHWEST AND SOUTH CENTRAL SOUTH DAKOTA
  
CITY           SKY/WX    TMP DP  RH WIND       PRES   REMARKS
RAPID CTY ARPT SUNNY     50  27  40 SE5       29.89F                  
PIERRE         SUNNY     40  29  64 SE3       29.93F                  
CUSTER         SUNNY     46  19  34 W18G31    29.97F                  
ELLSWORTH AFB  SUNNY     52  30  43 S3        29.88F                  
PHILIP         SUNNY     46  28  49 W6        29.91F                  
PINE RIDGE     SUNNY     52  30  43 SW7       29.97F                  
SPEARFISH      FAIR      55  23  28 W7        29.91F                  
WINNER         FAIR      52  29  41 S8        29.94F                  
$$
 
SDZ004>011-016>023-039-040-172000-
NORTHEAST SOUTH DAKOTA
  
CITY           SKY/WX    TMP DP  RH WIND       PRES   REMARKS
ABERDEEN       SUNNY     43  25  49 SE16      30.02F                  
WATERTOWN      SUNNY     37  25  61 SE14G20   30.03F                  
BROOKINGS      SUNNY     43  27  53 SE18G25   30.04                   
SISSETON         N/A     33  23  66 SE15      30.10F WCI  23          
$$
 
SDZ017-020-022-023-036>040-048>070-172000-
SOUTHEAST SOUTH DAKOTA
  
CITY           SKY/WX    TMP DP  RH WIND       PRES   REMARKS
SIOUX FALLS    SUNNY     44  30  57 S17G24    30.05F                  
HURON          SUNNY     42  29  59 SE15G22   30.00F                  
CHAMBERLAIN    SUNNY     46  32  57 S6        29.95F                  
MITCHELL       FAIR      41  29  62 S15       30.01F                  
YANKTON        SUNNY     42  32  67 SE8       30.05F                  
$$
 
ABBREVIATIONS USED IN REMARKS
   TC - TEMPERATURE IN CELSIUS
  WCI - WIND CHILL INDEX
   HX - HEAT INDEX
  VSB - VISIBILITY